#timestamp,LO_Frequency,Hit,StdDev 
1546207215.2,286047002.4,N
1546207235.1,286047001.9,N
1546207236.0,286047001.9,N
1546207255.8,286047002.2,N
1546207275.6,286046999.7,N
1546207295.5,286047002.6,N
1546207315.3,286046999.9,N
1546207335.2,286047000.8,N
1546207355.9,286047001.0,N
1546207375.7,286047000.1,N
1546207395.6,286047001.2,N
1546207415.4,286047000.0,N
1546207435.2,286047000.6,N
1546207455.1,286047001.1,N
1546207456.0,286047001.1,N
1546207475.8,286047001.0,N
1546207495.7,286047000.5,N
1546207515.5,286046996.5,N
1546207535.3,286046999.3,N
1546207555.2,286047001.8,N
1546207575.0,286047000.0,N
1546207575.9,286047000.0,N
1546207595.7,286046999.8,N
1546207615.6,286047000.3,N
1546207635.4,286047000.3,N
1546207655.3,286046998.4,N
1546207675.1,286047001.1,N
1546207676.0,286047001.1,N
1546207695.8,286047001.0,N
1546207715.7,286047001.2,N
1546207735.5,286047001.0,N
1546207755.3,286047000.5,N
1546207775.2,286047002.2,N
1546207795.0,286047001.2,N
1546207795.9,286047001.2,N
1546207815.8,286046998.2,N
1546207835.6,286046998.4,N
1546207855.4,286047001.5,N
1546207875.3,286047001.9,N
1546207895.1,286046999.7,N
1546207915.8,286047000.5,N
1546207935.7,286047000.6,N
1546207955.5,286047000.6,N
1546207975.4,286047000.8,N
1546207995.2,286047000.8,N
1546208015.0,286047000.9,N
1546208015.9,286047000.9,N
1546208035.8,286047000.5,N
1546208055.6,286046998.2,N
1546208075.4,286047000.7,N
1546208095.3,286047002.5,N
1546208115.1,286047000.2,N
1546208135.9,286046999.9,N
1546208155.7,286047000.0,N
1546208175.5,286047000.4,N
1546208195.4,286046999.8,N
1546208215.2,286047000.4,N
1546208235.0,286047000.4,N
1546208235.9,286047000.4,N
1546208255.8,286047000.7,N
1546208275.6,286047000.0,N
1546208295.5,286047001.6,N
1546208315.3,286046999.8,N
1546208335.1,286047002.8,N
1546208355.9,286047001.2,N
1546208375.7,286047000.8,N
1546208395.5,286047001.0,N
1546208415.4,286046999.8,N
1546208435.2,286047000.9,N
1546208455.1,286046999.9,N
1546208456.0,286046999.9,N
1546208475.8,286047000.5,N
1546208525.7,286047003.9,E
1546208535.6,286047002.8,N
1546208555.4,286046999.6,P
1546208575.3,286046999.1,N
1546208595.1,286047002.8,N
1546208596.0,286047002.8,N
1546208615.8,286047001.0,N
1546208665.7,286047001.7,E
1546208675.6,286047002.7,N
1546208695.5,286046998.6,P
1546208715.3,286046998.2,N
1546208735.1,286047000.2,N
1546208755.9,286046998.5,N
1546208775.7,286046997.6,N
1546208795.6,286046997.5,N
1546208815.4,286046997.5,N
1546208835.2,286046997.3,N
1546208855.1,286046999.3,N
1546208856.0,286046999.3,N
1546208875.8,286046998.9,N
1546208895.6,286046998.9,N
1546208915.5,286046998.8,N
1546208935.3,286046997.0,N
1546208955.2,286046996.6,N
1546208975.9,286046996.9,N
1546208995.7,286046996.5,N
1546209015.6,286046998.6,N
1546209035.4,286046998.3,N
1546209055.2,286046998.8,N
1546209075.1,286046999.0,N
1546209076.0,286046999.0,N
1546209095.8,286046997.7,N
1546209115.7,286046997.4,N
1546209135.5,286046995.3,Y
1546209155.3,286046996.9,P
1546209175.2,286046996.8,P
1546209195.0,286046996.6,P
1546209195.9,286046996.6,Y
1546209215.7,286046999.8,P
1546209235.6,286047002.0,N
1546209255.4,286047001.9,N
1546209275.3,286047003.2,N
1546209295.1,286047001.9,N
1546209296.0,286047001.9,N
1546209315.8,286047002.4,N
1546209335.7,286047002.0,N
1546209355.5,286047001.8,N
1546209375.4,286047005.8,Y
1546209395.2,286047001.8,P
1546209415.0,286047004.4,P
1546209415.9,286047004.4,P
1546209435.8,286047001.8,N
1546209455.6,286047003.4,N
1546209475.4,286047001.5,N
1546209495.3,286047000.1,N
1546209515.1,286047001.1,N
1546209535.9,286047002.8,N
1546209555.7,286047002.7,N
1546209575.5,286047002.0,N
1546209595.4,286046999.9,N
1546209615.2,286047001.2,N
1546209635.0,286046999.8,N
1546209635.9,286046999.8,N
1546209655.8,286047001.9,N
1546209675.6,286047002.6,N
1546209695.5,286047002.3,N
1546209715.3,286047002.1,N
1546209735.1,286047000.1,N
1546209755.9,286047002.4,N
1546209775.7,286047002.5,N
1546209795.5,286047002.3,N
1546209815.4,286047000.5,N
1546209835.2,286046999.9,N
1546209855.0,286047000.0,N
1546209856.0,286047000.0,N
1546209875.8,286047000.8,N
1546209895.6,286046998.9,N
1546209915.5,286046998.8,N
1546209935.3,286046997.3,N
1546209955.1,286046998.4,N
1546209975.9,286047002.1,N
1546209995.7,286047002.3,N
1546210015.6,286047001.3,N
1546210035.4,286047002.4,N
1546210055.2,286047002.5,N
1546210075.1,286047002.2,N
1546210076.0,286047002.2,N
1546210095.8,286047002.1,N
1546210115.7,286047002.2,N
1546210135.5,286047001.9,N
1546210155.3,286047003.1,N
1546210175.2,286047003.2,N
1546210195.0,286047003.3,N
1546210195.9,286047003.3,N
1546210215.7,286047004.4,N
1546210235.6,286047002.2,N
1546210255.4,286047004.0,N
1546210275.3,286047001.8,N
1546210295.1,286047001.6,N
1546210296.0,286047001.6,N
1546210315.8,286047002.5,N
1546210335.7,286046999.7,N
1546210355.5,286047002.6,N
1546210375.3,286047002.5,N
1546210395.2,286047001.1,N
1546210415.0,286047000.5,N
1546210415.9,286047000.5,N
1546210435.8,286047000.4,N
1546210455.6,286047002.7,N
1546210475.4,286047002.2,N
1546210495.3,286047002.2,N
1546210515.1,286047002.6,N
1546210535.8,286047000.4,N
1546210555.7,286046999.8,N
1546210575.5,286047002.5,N
1546210595.3,286047002.0,N
1546210615.2,286047004.2,Y
1546210635.0,286047000.8,P
1546210635.9,286047000.8,N
1546210655.8,286046998.3,N
1546210675.6,286047000.5,N
1546210695.4,286046998.1,N
1546210715.3,286047002.8,N
1546210735.1,286047000.5,N
1546210755.9,286046999.8,N
1546210775.7,286047000.9,N
1546210795.5,286047002.4,N
